This is the latest recevied weather packets stored in our database for station/object K6CED. If no packets are shown the sender has not sent any weather packets the latest 10 day(s).
| Time | Temp. | Humidity | Pressure | Rain* | Wind** | Luminosity | Snow |
|---|---|---|---|---|---|---|---|
| 1777967442 | 12.22° C | 86% | 1016.7 hPa | 0 mm | - | 0 W/m² | - |
| 1777967139 | 12.22° C | 86% | 1016.5 hPa | 0 mm | - | 0 W/m² | - |
| 1777966836 | 12.22° C | 86% | 1016.7 hPa | 0 mm | - | 0 W/m² | - |
| 1777966533 | 12.22° C | 86% | 1016.6 hPa | 0 mm | - | 0 W/m² | - |
| 1777966232 | 12.22° C | 86% | 1017 hPa | 0 mm | - | 0 W/m² | - |
| 1777965927 | 12.22° C | 85% | 1017 hPa | 0 mm | - | 0 W/m² | - |
| 1777965623 | 12.78° C | 83% | 1016.9 hPa | 0 mm | - | 0 W/m² | - |
| 1777965319 | 12.78° C | 79% | 1017.1 hPa | 0 mm | - | 0 W/m² | - |
| 1777965017 | 12.78° C | 79% | 1016.9 hPa | 0 mm | - | 0 W/m² | - |
| 1777964714 | 12.78° C | 79% | 1017 hPa | 0 mm | - | 0 W/m² | - |
| 1777964410 | 12.78° C | 79% | 1016.7 hPa | 0 mm | - | 0 W/m² | - |
| 1777964107 | 12.78° C | 79% | 1016.7 hPa | 0 mm | - | 0 W/m² | - |
| 1777963803 | 12.78° C | 79% | 1016.9 hPa | 0 mm | - | 0 W/m² | - |
| 1777963499 | 12.78° C | 79% | 1017.1 hPa | 0 mm | - | 0 W/m² | - |
| 1777963198 | 12.78° C | 79% | 1016.9 hPa | 0 mm | - | 0 W/m² | - |
| 1777962895 | 12.78° C | 78% | 1017 hPa | 0 mm | - | 0 W/m² | - |
| 1777962591 | 12.78° C | 77% | 1017 hPa | 0 mm | - | 0 W/m² | - |
| 1777962288 | 12.78° C | 76% | 1017 hPa | 0 mm | - | 0 W/m² | - |
| 1777961985 | 13.33° C | 75% | 1017 hPa | 0 mm | - | 0 W/m² | - |
| 1777961683 | 13.33° C | 76% | 1017.1 hPa | 0 mm | - | 0 W/m² | - |
| 1777961380 | 13.33° C | 77% | 1017 hPa | 0 mm | - | 0 W/m² | - |
| 1777961077 | 13.33° C | 78% | 1017.3 hPa | 0 mm | - | 0 W/m² | - |
| 1777960774 | 13.33° C | 80% | 1017.3 hPa | 0 mm | - | 0 W/m² | - |
| 1777960470 | 13.33° C | 82% | 1017.3 hPa | 0 mm | - | 0 W/m² | - |
| 1777960167 | 13.33° C | 82% | 1017.2 hPa | 0 mm | - | 0 W/m² | - |
* Rain latest hour (hover to see other rain measurements)
** Current wind speed in m/s (hover to see current wind gust speed)